This is the latest recevied weather packets stored in our database for station/object WD7CGF. If no packets are shown the sender has not sent any weather packets the latest 10 day(s).
| Time | Temp. | Humidity | Pressure | Rain* | Wind** | Luminosity | Snow |
|---|---|---|---|---|---|---|---|
| 1777065491 | 15° C | 32% | 1016.3 hPa | 0 mm | - | - | - |
| 1777064900 | 14.44° C | 34% | 1016.5 hPa | 0 mm | - | - | - |
| 1777064292 | 14.44° C | 33% | 1016.6 hPa | 0 mm | - | - | - |
| 1777063699 | 14.44° C | 31% | 1016.6 hPa | 0 mm | - | - | - |
| 1777063091 | 14.44° C | 29% | 1017 hPa | 0 mm | - | - | - |
| 1777062500 | 15° C | 30% | 1017 hPa | 0 mm | - | - | - |
| 1777061895 | 14.44° C | 34% | 1017 hPa | 0 mm | - | - | - |
| 1777061296 | 13.89° C | 34% | 1017.1 hPa | 0 mm | - | - | - |
| 1777060702 | 13.33° C | 35% | 1016.3 hPa | 0 mm | - | - | - |
| 1777060106 | 12.78° C | 33% | 1016.3 hPa | 0 mm | - | - | - |
| 1777059494 | 13.33° C | 32% | 1016.4 hPa | 0 mm | - | - | - |
| 1777058903 | 13.33° C | 32% | 1017.4 hPa | 0 mm | - | - | - |
| 1777058293 | 13.89° C | 30% | 1017.4 hPa | 0 mm | - | - | - |
| 1777057705 | 14.44° C | 34% | 1017.6 hPa | 0 mm | - | - | - |
| 1777057093 | 14.44° C | 32% | 1017.5 hPa | 0 mm | - | - | - |
| 1777056502 | 15° C | 31% | 1017.5 hPa | 0 mm | - | - | - |
| 1777055891 | 14.44° C | 34% | 1017.7 hPa | 0 mm | - | - | - |
| 1777055301 | 13.89° C | 41% | 1017.9 hPa | 0 mm | - | - | - |
| 1777054688 | 13.33° C | 36% | 1017.9 hPa | 0 mm | - | - | - |
| 1777054096 | 13.89° C | 36% | 1017.9 hPa | 0 mm | - | - | - |
| 1777053502 | 13.89° C | 39% | 1018 hPa | 0 mm | - | - | - |
| 1777052889 | 13.33° C | 41% | 1018 hPa | 0 mm | - | - | - |
| 1777052296 | 13.33° C | 43% | 1018 hPa | 0 mm | - | - | - |
| 1777051697 | 13.33° C | 41% | 1018.1 hPa | 0 mm | - | - | - |
| 1777051104 | 12.78° C | 48% | 1018.1 hPa | 0 mm | - | - | - |
* Rain since midnight (hover to see other rain measurements)
** Current wind speed in m/s (hover to see current wind gust speed)